Regional Weather Roundup
Issued by NWS

Home | Current Version | Previous Version | Graphics & Text | Print | Product List | Glossary On
Versions: 1 2 3 4 5 6 7 8 9 10 11 12 13 14 15 16 17 18 19 20 21 22 23 24 25 26 27 28 29 30 31 32 33 34 35 36 37 38 39 40 41 42 43 44 45 46 47 48 49 50
000
ASUS44 KMEG 300710
RWRTN
TENNESSEE HOURLY STATE WEATHER ROUNDUP
NATIONAL WEATHER SERVICE MEMPHIS TN
200 AM CDT TUE JUN 30 2015

TNZ002-004-019-021-049-052-054-088>092-300800-
WEST TENNESSEE

CITY           SKY/WX    TMP DP  RH WIND       PRES   REMARKS
MEMPHIS INTL   CLOUDY    74  68  81 VRB6      29.91R
NWS MEMPHIS      N/A     68 N/A N/A MISG        N/A
JACKSON        PTCLDY    73  68  84 SW7       29.91S
DYERSBURG        N/A    N/A N/A N/A MISG        N/A
PARIS          PTCLDY    68  66  94 S3        29.91F
LEXINGTON      CLEAR     68  66  94 CALM      29.90F
$$

TNZ008-025-027-028-033-062-065-066-300800-
NORTH MIDDLE TENNESSEE

CITY           SKY/WX    TMP DP  RH WIND       PRES   REMARKS
NASHVILLE      CLOUDY    72  70  93 SW6       29.92R
CLARKSVILLE    PTCLDY    70  67  90 W6        29.88F
SMYRNA         CLOUDY    74  69  84 CALM      29.92R
COOKEVILLE     CLOUDY    68  66  94 SW3       29.95S
CROSSVILLE     TSTM      65  62  90 VRB3      30.01R FOG
$$

TNZ061-075-076-078-094-096-097-300800-
SOUTH MIDDLE TENNESSEE

CITY           SKY/WX    TMP DP  RH WIND       PRES   REMARKS
FAYETTEVILLE   CLEAR     72  64  78 SW5       29.95F
TULLAHOMA      CLEAR     72  64  78 S9        29.95R
WINCHESTER     PTCLDY    75  66  73 SW5       29.95S
MCMINNVILLE    PTCLDY    72  68  88 W5        29.95R
COLUMBIA       CLEAR     70  70 100 CALM      29.89F
SHELBYVILLE    CLEAR     73  70  88 SW8       29.93R
$$

TNZ017-018-042-046-047-300800-
NORTHEAST TENNESSEE

CITY           SKY/WX    TMP DP  RH WIND       PRES   REMARKS
TRI CITIES     CLOUDY    69  61  75 CALM      29.96F
ELIZABETHTON   LGT RAIN  64  63  94 CALM      29.98F
$$

TNZ012-013-036-069-073-074-300800-
CENTRAL EAST TENNESSEE

CITY           SKY/WX    TMP DP  RH WIND       PRES   REMARKS
KNOXVILLE      LGT RAIN  69  65  86 N3        29.94S
OAK RIDGE      CLOUDY    66  64  93 CALM      29.96F
GATLINBURG     PTSUNNY   64  63  94 CALM      29.94F
MORRISTOWN     SUNNY     66  63  88 SW9       29.95R
$$

TNZ083-085-099-300800-
SOUTHEAST TENNESSEE

CITY           SKY/WX    TMP DP  RH WIND       PRES   REMARKS
CHATTANOOGA    PTCLDY    75  63  66 S7        29.94F
$$

SKY/WX REPORTED AS FAIR MEANS FEW OR NO CLOUDS BELOW
12 THOUSAND FEET.




USA.gov is the U.S. government's official web portal to all federal, state and local government web resources and services.